Lacon, IL

12:11 AM CST on December 10, 2019 (GMT -0600)
Lacon

Weather History for KC75 - October, 2019

Change the Weather History Date:

Saturday, October 12, 2019

  Actual Average (KVYS) Record (KVYS)
Temperature  
Mean Temperature 45 °F -  
Max Temperature 56 °F 67 °F 87 °F (2008)
Min Temperature 34 °F 41 °F 24 °F (1988)
Degree Days  
Heating Degree Days 20    
Moisture  
Dew Point 30 °F    
Average Humidity 55    
Maximum Humidity 82    
Minimum Humidity 36    
Precipitation  
Precipitation 0.00 in - - ()
Sea Level Pressure  
Sea Level Pressure 29.97 in    
Wind  
Wind Speed 11 mph (SW)    
Max Wind Speed 22 mph    
Max Gust Speed 29 mph    
Visibility 10 miles    
Events      
Averages and records for this station are not official NWS values.
T = Trace of Precipitation, MM = Missing Value Source: NWS Daily Summary

Daily Weather History Graph

Daily Weather History Graph

Search for Another Location

Airport or City:

Astronomy

Oct. 12, 2019 Rise Set
Actual Time 7:05 AM CDT 6:21 PM CDT
Civil Twilight 6:37 AM CDT 6:49 PM CDT
Nautical Twilight 6:05 AM CDT 7:21 PM CDT
Astronomical Twilight 5:33 AM CDT 7:52 PM CDT
Moon 6:18 PM CDT (10/12) 5:41 AM CDT (10/12)
Length of Visible Light 12h 11m
Length of Day
11h 16m
Waxing Gibbous, 99% of the Moon is Illuminated
Oct 12
Waxing Gibbous
Oct 13
Full
Oct 21
Last Quarter
Oct 27
New
Nov 4
First Quarter

Hourly Weather History & Observations

Time (CDT) Temp. Windchill Dew Point Humidity Pressure Visibility Wind Dir Wind Speed Gust Speed Precip Events Conditions
12:15 AM 38.3 °F 31.9 °F 27.5 °F 65% 30.10 in 10.0 mi SW 9.2 mph - N/A   Overcast
12:35 AM 37.9 °F 32.1 °F 27.5 °F 66% 30.09 in 10.0 mi SW 8.1 mph - N/A   Overcast
12:55 AM 37.9 °F 32.1 °F 27.5 °F 66% 30.09 in 10.0 mi WSW 8.1 mph - N/A   Overcast
1:15 AM 37.8 °F 31.8 °F 27.5 °F 67% 30.09 in 10.0 mi WSW 8.1 mph - N/A   Mostly Cloudy
1:35 AM 37.4 °F 30.8 °F 27.5 °F 67% 30.08 in 10.0 mi WSW 9.2 mph - N/A   Overcast
1:55 AM 37.4 °F 31.4 °F 27.7 °F 68% 30.08 in 10.0 mi SW 8.1 mph - N/A   Overcast
2:15 AM 37.0 °F 31.0 °F 28.4 °F 71% 30.08 in 10.0 mi SW 8.1 mph - N/A   Overcast
2:35 AM 36.1 °F 30.6 °F 28.0 °F 72% 30.08 in 10.0 mi SW 6.9 mph - N/A   Scattered Clouds
2:55 AM 35.6 °F 29.9 °F 28.4 °F 75% 30.08 in 10.0 mi SW 6.9 mph - N/A   Clear
3:15 AM 35.6 °F 30.7 °F 28.4 °F 75% 30.07 in 10.0 mi WSW 5.8 mph - N/A   Clear
3:35 AM 34.7 °F 27.5 °F 28.9 °F 79% 30.07 in 10.0 mi SW 9.2 mph - N/A   Clear
3:55 AM 35.1 °F 30.1 °F 28.9 °F 78% 30.07 in 10.0 mi SW 5.8 mph - N/A   Clear
4:15 AM 34.7 °F 28.1 °F 28.9 °F 79% 30.07 in 10.0 mi SW 8.1 mph - N/A   Clear
4:35 AM 34.7 °F 28.8 °F 29.1 °F 80% 30.07 in 10.0 mi SW 6.9 mph - N/A   Clear
4:55 AM 34.3 °F 27.7 °F 29.1 °F 81% 30.07 in 10.0 mi SW 8.1 mph - N/A   Clear
5:15 AM 34.2 °F 27.5 °F 29.3 °F 82% 30.07 in 10.0 mi SW 8.1 mph - N/A   Clear
5:35 AM 34.2 °F 26.8 °F 28.8 °F 81% 30.08 in 10.0 mi SW 9.2 mph - N/A   Clear
5:50 AM 34.0 °F 26.6 °F 28.8 °F 81% 30.08 in 10.0 mi SW 9.2 mph - N/A   Clear
6:15 AM 34.7 °F 28.1 °F 28.6 °F 78% 30.07 in 10.0 mi SW 8.1 mph - N/A   Clear
6:35 AM 34.7 °F 28.1 °F 28.4 °F 78% 30.07 in 10.0 mi SW 8.1 mph - N/A   Clear
6:55 AM 34.5 °F 26.7 °F 28.4 °F 78% 30.07 in 10.0 mi SW 10.4 mph 16.1 mph N/A   Clear
7:15 AM 34.5 °F 26.7 °F 28.8 °F 79% 30.06 in 10.0 mi SW 10.4 mph - N/A   Clear
7:35 AM 35.2 °F 27.6 °F 28.4 °F 76% 30.06 in 10.0 mi SW 10.4 mph - N/A   Clear
7:55 AM 36.5 °F 29.2 °F 28.6 °F 73% 30.06 in 10.0 mi SW 10.4 mph 17.3 mph N/A   Clear
8:15 AM 37.0 °F 28.9 °F 28.9 °F 73% 30.07 in 10.0 mi SW 12.7 mph 18.4 mph N/A   Clear
8:35 AM 37.8 °F 30.7 °F 29.1 °F 71% 30.07 in 10.0 mi SW 10.4 mph 19.6 mph N/A   Clear
8:55 AM 39.2 °F 31.2 °F 29.1 °F 67% 30.07 in 10.0 mi SW 13.8 mph 18.4 mph N/A   Clear
9:10 AM 39.7 °F 32.3 °F 28.8 °F 65% 30.06 in 10.0 mi SW 12.7 mph 19.6 mph N/A   Clear
9:35 AM 41.7 °F 35.2 °F 28.4 °F 59% 30.05 in 10.0 mi SW 11.5 mph 20.7 mph N/A   Clear
9:55 AM 43.0 °F 35.7 °F 25.7 °F 51% 30.05 in 10.0 mi WSW 15.0 mph 19.6 mph N/A   Clear
10:15 AM 43.7 °F 36.9 °F 26.1 °F 50% 30.05 in 10.0 mi SW 13.8 mph 18.4 mph N/A   Clear
10:35 AM 44.6 °F 36.4 °F 25.7 °F 48% 30.05 in 10.0 mi WSW 20.7 mph 26.5 mph N/A   Clear
10:55 AM 45.9 °F 40.8 °F 25.2 °F 44% 30.04 in 10.0 mi SW 10.4 mph 24.2 mph N/A   Clear
11:15 AM 47.3 °F - 24.6 °F 41% 30.04 in 10.0 mi SW 15.0 mph 23.0 mph N/A   Clear
11:35 AM 49.3 °F - 26.2 °F 41% 30.02 in 10.0 mi SSW 15.0 mph 19.6 mph N/A   Clear
11:55 AM 50.0 °F - 25.2 °F 38% 30.01 in 10.0 mi SW 18.4 mph 23.0 mph N/A   Clear
12:10 PM 50.5 °F - 24.8 °F 37% 30.01 in 10.0 mi SW 17.3 mph 25.3 mph N/A   Clear
12:35 PM 52.0 °F - 26.2 °F 37% 29.99 in 10.0 mi SSW 16.1 mph 25.3 mph N/A   Clear
12:55 PM 52.5 °F - 26.2 °F 36% 29.98 in 10.0 mi SW 16.1 mph 26.5 mph N/A   Clear
1:15 PM 53.4 °F - 27.5 °F 37% 29.96 in 10.0 mi SW 15.0 mph 24.2 mph N/A   Clear
1:35 PM 54.0 °F - 28.0 °F 37% 29.95 in 10.0 mi WSW 17.3 mph 26.5 mph N/A   Clear
1:55 PM 54.3 °F - 28.4 °F 37% 29.93 in 10.0 mi SSW 18.4 mph 23.0 mph N/A   Clear
2:15 PM 53.8 °F - 31.1 °F 42% 29.91 in 10.0 mi SSW 15.0 mph 24.2 mph N/A   Clear
2:35 PM 54.5 °F - 30.9 °F 41% 29.91 in 10.0 mi SSW 16.1 mph 25.3 mph N/A   Clear
2:55 PM 54.9 °F - 30.0 °F 39% 29.90 in 10.0 mi South 21.9 mph 28.8 mph N/A   Clear
3:15 PM 55.6 °F - 30.9 °F 39% 29.89 in 10.0 mi SSW 16.1 mph 26.5 mph N/A   Clear
3:35 PM 55.4 °F - 30.2 °F 38% 29.87 in 10.0 mi SSW 20.7 mph 26.5 mph N/A   Clear
3:55 PM 55.9 °F - 29.8 °F 37% 29.87 in 10.0 mi SW 15.0 mph 28.8 mph N/A   Clear
4:15 PM 56.7 °F - 30.9 °F 38% 29.87 in 10.0 mi SSW 19.6 mph 26.5 mph N/A   Clear
4:35 PM 56.7 °F - 30.6 °F 37% 29.85 in 10.0 mi SSW 15.0 mph 23.0 mph N/A   Clear
4:55 PM 56.7 °F - 30.7 °F 37% 29.84 in 10.0 mi SW 17.3 mph 24.2 mph N/A   Clear
5:15 PM 56.8 °F - 31.5 °F 38% 29.83 in 10.0 mi SSW 15.0 mph 21.9 mph N/A   Clear
5:35 PM 56.3 °F - 31.6 °F 39% 29.83 in 10.0 mi SSW 11.5 mph 24.2 mph N/A   Clear
5:55 PM 55.8 °F - 31.5 °F 40% 29.82 in 10.0 mi SSW 12.7 mph 20.7 mph N/A   Clear
6:15 PM 54.9 °F - 31.3 °F 41% 29.82 in 10.0 mi SSW 10.4 mph 17.3 mph N/A   Clear
6:35 PM 53.6 °F - 31.1 °F 42% 29.83 in 10.0 mi SSW 12.7 mph 17.3 mph N/A   Clear
6:55 PM 53.8 °F - 31.5 °F 43% 29.83 in 10.0 mi SSW 15.0 mph 21.9 mph N/A   Clear
7:15 PM 53.2 °F - 31.6 °F 44% 29.83 in 10.0 mi SSW 15.0 mph 25.3 mph N/A   Clear
7:35 PM 52.9 °F - 31.8 °F 45% 29.83 in 10.0 mi SSW 16.1 mph 23.0 mph N/A   Clear
7:55 PM 52.9 °F - 31.8 °F 45% 29.84 in 10.0 mi SSW 17.3 mph 24.2 mph N/A   Clear
8:15 PM 52.5 °F - 32.0 °F 46% 29.84 in 10.0 mi SSW 16.1 mph 28.8 mph N/A   Clear
8:35 PM 52.2 °F - 32.0 °F 46% 29.84 in 10.0 mi SSW 17.3 mph 26.5 mph N/A   Clear
8:55 PM 52.0 °F - 32.4 °F 47% 29.83 in 10.0 mi SSW 16.1 mph 24.2 mph N/A   Clear
9:15 PM 52.0 °F - 33.1 °F 49% 29.83 in 10.0 mi SSW 12.7 mph 23.0 mph N/A   Clear
9:35 PM 52.0 °F - 33.8 °F 50% 29.83 in 10.0 mi SSW 15.0 mph 26.5 mph N/A   Clear
9:55 PM 52.0 °F - 34.7 °F 52% 29.83 in 10.0 mi SSW 12.7 mph 26.5 mph N/A   Clear
10:15 PM 52.3 °F - 34.7 °F 51% 29.83 in 10.0 mi SSW 12.7 mph 25.3 mph N/A   Clear
10:35 PM 51.8 °F - 34.9 °F 53% 29.83 in 10.0 mi SSW 16.1 mph 23.0 mph N/A   Clear
10:55 PM 51.8 °F - 34.7 °F 52% 29.83 in 10.0 mi SSW 15.0 mph 23.0 mph N/A   Clear
11:15 PM 51.4 °F - 34.9 °F 53% 29.83 in 10.0 mi SW 15.0 mph 21.9 mph N/A   Clear
11:35 PM 51.3 °F - 34.9 °F 54% 29.83 in 10.0 mi WSW 11.5 mph 23.0 mph N/A   Scattered Clouds
11:55 PM 49.6 °F - 33.4 °F 54% 29.84 in 10.0 mi West 5.8 mph - N/A   Scattered Clouds